星链-11156 (STARLINK-11156)

导读 | 星芒AI

STARLINK-11156 是 SpaceX 星链计划中的一颗低轨通信卫星,属于第 5 批星链卫星任务(5-1)。该卫星于 2020 年 11 月 12 日由猎鹰 9 号火箭从卡纳维拉尔角发射升空。它运行在约 550 公里的高度,旨在为全球用户提供高速互联网服务。作为星链星座的一部分,STARLINK-11156 采用先进推进系统和激光通信技术,支持星座内数据传输,提升网络效率与覆盖能力。

基本信息
目录编号:
61056
目录名称:
STARLINK-11156
国际标识:
2024-164G
轨道中心:
EARTH
卫星名称:
星链-11156
卫星全名:
星链-11156 (STARLINK-11156)
卫星状态:
在轨 (已飞行458 天)
发射日期:
2024-09-13 UTC
国别 :
美国 (US)
星等 :
--
轨道信息
数据来源 国际轨道数据
星历时间: 2025-12-14T15:28:31+0800
1天前
查看轨道信息
半长轴: 6737.853km
偏心率: 0.0002608
轨道倾角: 53.160°
近地点辐角 151.942°
升交点赤经 11.827°
平近点角 208.174°
近地点: 357.96km
远地点: 361.476km
周期: 91.736分钟
每日圈数: 15.697139
详细信息
固有亮度:
5
最大亮度:
2.5
卫星平台:
Starlink V1.0
覆盖范围:
全球
运营商:
太空探索技术公司
运营商所在国:
美国
制造商(研发单位):
太空探索技术公司
制造商所在国:
美国
使用方式:
暂无
卫星简介
Starlink 计划是 SpaceX 推出的全球卫星互联网项目,通过发射低轨道卫星,为全球尤其是偏远地区提供高速、低延迟的互联网服务。自 2019 年起,Starlink 已部署数千颗卫星,旨在缩小全球数字鸿沟,推动互联网普及。该项目还为军事、航空等行业提供通信支持,带来广泛经济效益。
2D轨道图
3D轨道图
轨道高度分析图
轨道倾角分析图
轨道综合分析图
查看轨道综合分析图